星链-4599 (STARLINK-4599 )

导读

STARLINK-4599是美国SpaceX公司于2022年8月28日发射的星链(Starlink)系列低轨通信卫星,属于星链第一代组网卫星。星链计划旨在构建全球覆盖的卫星互联网星座,为偏远地区提供高速宽带接入。该星配备相控阵天线与氪离子推进系统,运行在近地轨道,支持自主轨道维持和避碰机动,设计寿命约5年,退役后会再入大气层完全烧毁,以减少空间垃圾残留。

基本信息
目录编号:
53631
目录名称:
STARLINK-4599
国际标识:
2022-104AV
轨道中心:
EARTH
卫星名称:
星链-4599
卫星全名:
星链-4599 (STARLINK-4599 )
卫星状态:
在轨 (已飞行1468 天)
发射日期:
2022-08-28 UTC
国别 :
美国 (US)
星等 :
--
轨道信息
数据来源 国际轨道数据
星历时间: 2026-09-04T12:59:21+0800
12小时前
查看轨道信息
半长轴: 6837.844km
偏心率: 0.0001195
轨道倾角: 53.161°
近地点辐角 92.927°
升交点赤经 143.852°
平近点角 267.188°
近地点: 458.889km
远地点: 460.525km
周期: 93.786分钟
每日圈数: 15.354088
详细信息
固有亮度:
5
最大亮度:
2.5
卫星平台:
Starlink v1.5
覆盖范围:
全球
运营商:
太空探索技术公司
运营商所在国:
美国
制造商(研发单位):
太空探索技术公司
制造商所在国:
美国
使用方式:
暂无
卫星简介
星链(Starlink)计划是由太空探索技术公司(SpaceX)提出的一个巨型低轨卫星互联网星座项目,计划在2019年至2024年间在太空搭建由约1.2万颗卫星组成的“星链”网络,其中1584颗将部署在地球上空550千米处的近地轨道,并从2020年开始工作。该卫星仍在工作。
2D轨道图
3D轨道图
轨道高度分析图
轨道倾角分析图
轨道综合分析图
查看轨道综合分析图
交会数据列表
事件ID 空间交会对象 最接近时刻(TCA) 交会距离 交会风险概率(CRP) 交会风险指数(CRI) 操作
CDM_260906-034505-363106-804321
2026-09-06T
03:45:52+0000
2.223 km
极远距离
1.946295E-6 低风险 0.41
CDM_260903-233705-363106-602521
2026-09-03T
23:37:29+0000
2.667 km
极远距离
1.379692E-6 低风险 0.38
CDM_260903-212705-363106-473821
2026-09-03T
21:27:43+0000
2.299 km
极远距离
1.361258E-6 低风险 0.38
CDM_260904-002405-363106-603022
2026-09-04T
00:24:00+0000
2.868 km
极远距离
1.248241E-6 低风险 0.37
CDM_260906-011105-363106-564321
2026-09-06T
01:11:20+0000
2.219 km
极远距离
1.185039E-6 低风险 0.36
CDM_260904-174405-363106-995621
2026-09-04T
17:44:04+0000
2.888 km
极远距离
1.05504E-6 低风险 0.35
CDM_260905-172605-363106-926021
2026-09-05T
17:26:15+0000
2.840 km
极远距离
1.036942E-6 低风险 0.35
CDM_260903-051605-363106-575121
2026-09-03T
05:16:37+0000
2.952 km
极远距离
9.423978E-7 极低风险 0.34
CDM_260904-203705-363106-383521
HERMES-3 (63835)
2026-09-04T
20:37:40+0000
2.676 km
极远距离
9.118261E-7 极低风险 0.34
CDM_260906-114405-363106-321321
OBJECT D (63213)
2026-09-06T
11:44:42+0000
2.894 km
极远距离
8.380117E-7 极低风险 0.33